Location: Schommer Observatory
(40.5200°N, 74.4500°W)
Time: 05:57:40
(UTC-05:00)

Tiangong 2 - Visible Passes

Search period start: 20 January 2018 00:00
Search period end: 30 January 2018 00:00
Orbit: 384 x 390 km, 42.8° (Epoch: 18 January)

Date Brightness Start Highest point End Pass type
(mag) Time Alt. Az. Time Alt. Az. Time Alt. Az.
20 Jan 3.8 04:52:38 20° E 04:52:38 20° E 04:53:54 10° E visible
20 Jan 1.1 06:24:55 13° W 06:27:40 69° NNW 06:30:52 10° ENE visible
21 Jan 1.1 05:29:09 76° E 05:29:09 76° E 05:32:08 10° ENE visible
22 Jan 4.7 04:33:17 11° ENE 04:33:17 11° ENE 04:33:23 10° ENE visible
22 Jan 1.3 06:05:33 26° WNW 06:07:05 56° N 06:10:15 10° ENE visible
23 Jan 2.8 05:09:36 32° ENE 05:09:36 32° ENE 05:11:30 10° ENE visible
23 Jan 1.3 06:42:08 10° WNW 06:45:17 58° N 06:48:27 10° E visible
24 Jan 1.4 05:45:53 44° NW 05:46:29 54° N 05:49:38 10° E visible
25 Jan 3.9 04:49:52 18° ENE 04:49:52 18° ENE 04:50:49 10° ENE visible
25 Jan 1.1 06:22:07 15° WNW 06:24:38 74° N 06:27:50 10° E visible
26 Jan 1.5 05:26:05 57° NNE 05:26:05 57° NNE 05:29:00 10° E visible
27 Jan 4.7 04:30:04 11° E 04:30:04 11° E 04:30:09 10° E visible
27 Jan 1.0 06:02:19 26° WNW 06:03:56 78° SSW 06:07:07 10° ESE visible
28 Jan 2.7 05:06:19 36° E 05:06:19 36° E 05:08:21 10° E visible
28 Jan 2.5 06:38:59 10° W 06:41:47 28° SSW 06:44:35 10° SSE visible
29 Jan 1.5 05:42:37 42° WSW 05:43:07 47° SSW 05:46:12 10° SE visible
